sat.trackr.live / text

‹ back to catalog

STARLINK-11348 [DTC]

NORAD 61694 · 2024-195H

PAYLOAD ACTIVE UNKNOWN

§ Identity

Operator
Country
US
Launch date
2024-10-30
Launch site
AFWTR
Launch vehicle
Mass (kg)
RCS (m²)

Purposes: comms

External: N2YO · Heavens-Above · Gunter

§ Orbital elements

Epoch: 2026-05-25T00:36:41.399424Z

Period
91.74 min
Inclination
53.1586°
Eccentricity
0.0000919
Mean motion
15.69712332 rev/d
Perigee alt
359.1 km
Apogee alt
360.3 km
Semi-major
6,737.9 km
B*
-2.0943e-7
RAAN
9.9039°
Arg perigee
103.7109°
Mean anomaly
256.4011°
Rev number
9,102

§ Raw data

STARLINK-11348 [DTC]1 61694U 24195H   26145.02547916 -.00000614  00000+0 -20943-6 0  99952 61694  53.1586   9.9039 0000919 103.7109 256.4011 15.69712332 91026

JSON: /api/v1/satellites/61694 · /tle

For live sub-satellite position, see the globe view (requires WebGL).

§ Visibility from observer

Set your observer location to see the next 7 days of passes ≥ 10°. The values pass through the URL so the page stays shareable.

No JS? Fill the form by hand. The geolocation button needs JavaScript.